Regional Weather Roundup
Issued by NWS

Home | Current Version | Previous Version | Text Only | Print | Product List | Glossary Off
Versions: 1 2 3 4 5 6 7 8 9 10 11 12 13 14 15 16 17 18 19 20 21 22 23 24 25 26 27 28 29 30 31 32 33 34 35 36 37 38 39 40 41 42 43 44 45 46 47 48 49 50

000
ASUS45 KABQ 310701
RWRNM
NEW MEXICO REGIONAL WEATHER ROUNDUP
NATIONAL WEATHER SERVICE ALBUQUERQUE NM
100 AM MDT MON AUG 31 2015

NOTE: "FAIR" MEANS FEW OR NO CLOUDS BELOW 12,000 FEET AGL WITH NO
       SIGNIFICANT WEATHER OR OBSTRUCTIONS TO VISION.

      THIS PRODUCT IS RELEASED AS TWO VERSIONS.  ONE VERSION NEAR
      THE TOP OF THE HOUR CONTAINING PRELIMINARY DATA FROM ALBUQUERQUE
      AND OTHER STATIONS.  A FINAL VERSION WITH ADDITIONAL DATA IS
      ISSUED ABOUT 10 MINUTES AFTER THE HOUR.

NMZ501-503-504-510>518-310800-
NORTHWEST PLATEAU/NORTHCENTRAL MOUNTAINS

CITY           SKY/WX    TMP DP  RH WIND       PRES   REMARKS
FARMINGTON     CLEAR     67  51  56 CALM      30.15R
SANTA FE       MOCLDY    65  46  50 NE10      30.20R
TAOS           PTCLDY    57  34  41 SE7       30.27R

$$
NMZ402-403-502-505>509-310800-
WESTCENTRAL MOUNTAINS/SOUTHWEST MOUNTAINS

CITY           SKY/WX    TMP DP  RH WIND       PRES   REMARKS
GALLUP         PTCLDY    57  53  86 W3        30.24R
SILVER CITY      N/A     64  54  68 N5        30.17S

$$
NMZ407-409-411-412-310800-
SOUTHERN DESERTS

CITY           SKY/WX    TMP DP  RH WIND       PRES   REMARKS
DEMING         CLEAR     72  53  51 SW6       30.08R
HOLLOMAN AFB   CLEAR     76  47  34 N10       30.05S
ALAMOGORDO     CLEAR     72  45  37 S8        30.07S
T OR C         CLEAR     73  49  42 W5        30.09S

$$
NMZ519>523-310800-
CENTRAL VALLEYS/CENTRAL HIGHLANDS

CITY           SKY/WX    TMP DP  RH WIND       PRES   REMARKS
ALBUQUERQUE    PTCLDY    76  48  37 NW6       30.14S
DOUBLE EAGLE   PTCLDY    68  49  51 NW7       30.17S
MORIARTY ARPT  FAIR      62  47  59 S3        30.21S
CLINES CORNERS PTCLDY    63  46  54 W13       30.24S
BELEN          FAIR      68  46  44 N6        30.13S
SOCORRO        NOT AVBL

$$
NMZ524>526-539-540-310800-
SOUTHCENTRAL MOUNTAINS

CITY           SKY/WX    TMP DP  RH WIND       PRES   REMARKS
RUIDOSO        NOT AVBL

$$
NMZ527>531-310800-
NORTHEAST HIGHLANDS/NORTHEAST PLAINS

CITY           SKY/WX    TMP DP  RH WIND       PRES   REMARKS
LAS VEGAS      PTCLDY    57  46  66 S12       30.23S
RATON          PTCLDY    65  50  58 CALM      30.18R
CLAYTON        CLEAR     65  53  65 SW10      30.07F

$$
NMZ532>537-310800-
EASTCENTRAL PLAINS

CITY           SKY/WX    TMP DP  RH WIND       PRES   REMARKS
TUCUMCARI      CLEAR     67  49  52 W9        30.05S
CANNON AFB     CLEAR     63  51  64 SW6       30.09F
CLOVIS AIRPORT CLEAR     63  48  59 SW7       30.10S

$$
NMZ028-029-538-310800-
SOUTHEAST PLAINS

CITY           SKY/WX    TMP DP  RH WIND       PRES   REMARKS
ROSWELL        CLEAR     67  51  56 SW7       30.05S
ARTESIA        CLEAR     68  50  52 S9        30.06S
CARLSBAD       CLEAR     72  48  42 S10       30.04
HOBBS            N/A     66  59  77 S8        30.10S


$$



USA.gov is the U.S. government's official web portal to all federal, state and local government web resources and services.